Find Local Weather

World > North America > United States > North Carolina

Bell Arthur, North Carolina Regional Weather

Lat: 35.58N, Lon: 77.4W
Wx Zone: NCZ044
Feedback

Bell Arthur, NC Regional Weather

Expires:201905202300;;189753
ASUS42 KMHX 202225
RWRMHX
WEATHER ROUNDUP FOR EASTERN NORTH CAROLINA
NATIONAL WEATHER SERVICE NEWPORT/MOREHEAD CITY NC
600 PM EDT MON MAY 20 2019

NOTE: "FAIR" INDICATES FEW OR NO CLOUDS BELOW 12,000 FEET
WITH NO SIGNIFICANT WEATHER AND/OR OBSTRUCTIONS TO VISIBILITY


NCZ011>013-027>030-043-044-078>080-089-090>093-098-202300-
COASTAL PLAIN
  
CITY           SKY/WX    TMP DP  RH WIND       PRES   REMARKS
AHOSKIE        FAIR      87  64  46 SW7       29.87F                  
CLINTON        FAIR      86  65  50 CALM      29.92S                  
ELIZABETHTOWN  PTSUNNY   86  70  59 S14       29.93R                  
GOLDSBORO      NOT AVBL                                               
GREENVILLE     FAIR      90  61  37 SW9       29.92S                  
HAVELOCK       FAIR      83  65  54 S13       29.95F                  
KENANSVILLE    FAIR      86  63  45 S3        29.91S                  
KINSTON        MOSUNNY   90  59  35 S13       29.91S                  
NEW BERN       FAIR      83  68  60 S12G21    29.94S                  
RICHLANDS      FAIR      85  71  63 S14       29.93S                  
ROCKY MOUNT    FAIR      87  66  49 S9        29.89S                  
WASHINGTON     FAIR      89  60  37 SW9       29.90S                  
WHITEVILLE     FAIR      84  69  61 SE10G17   29.93S                  

$$


SKY/WX - Weather  TMP - Temperature  DP - Dew Point  RH - Relative Humidity
WIND - Wind Direction/Speed PRES - Barometric Pressure VSB - Visibility
WCI - Wind Chill Index E13G22 Wind - East Wind 13 mph/Gusts of 22 mph